Weather History for Kokomo, IN

Change the Weather History Date:

Sunday, January 6, 2013

  Actual Average (KGUS) Record (KGUS)
Temperature  
Mean Temperature 30 °F -  
Max Temperature 35 °F 31 °F 59 °F (2008)
Min Temperature 24 °F 20 °F -14 °F (2014)
Degree Days  
Heating Degree Days 36    
Moisture  
Dew Point 25 °F    
Average Humidity 83    
Maximum Humidity 93    
Minimum Humidity 75    
Precipitation  
Precipitation 0.00 in - - ()
Sea Level Pressure  
Sea Level Pressure 30.11 in    
Wind  
Wind Speed 16 mph (West)    
Max Wind Speed 25 mph    
Max Gust Speed 31 mph    
Visibility 9 miles    
Events      
Averages and records for this station are not official NWS values.
T = Trace of Precipitation, MM = Missing Value Source: NWS Daily Summary

Daily Weather History Graph

Daily Weather History Graph

Search for Another Location

Airport:

Trip Planner

Search our weather history database for the weather conditions in past years. The results will help you decide how hot, cold, wet, or windy it might be!

Date:

Astronomy

Jan. 06, 2013 Rise Set
Actual Time 7:07 AM CST 4:32 PM CST
Civil Twilight 6:37 AM CST 5:03 PM CST
Nautical Twilight 6:03 AM CST 5:37 PM CST
Astronomical Twilight 5:30 AM CST 6:10 PM CST
Moon 1:20 AM CST (1/6) 12:00 PM CST (1/6)
Length of Visible Light 10h 26m
Length of Day
9h 25m
Waning Crescent, 33% of the Moon is Illuminated
Jan 6
Waning Crescent
Jan 11
New
Jan 18
First Quarter
Jan 26
Full
Feb 3
Last Quarter

Hourly Weather History & Observations

Time (CST) Temp. Windchill Dew Point Humidity Pressure Visibility Wind Dir Wind Speed Gust Speed Precip Events Conditions
12:15 AM 33.8 °F 22.8 °F 26.6 °F 75% 30.05 in 10.0 mi SW 18.4 mph 23.0 mph N/A   Overcast
12:35 AM 33.8 °F 23.9 °F 28.4 °F 81% 30.03 in 10.0 mi SW 15.0 mph - N/A   Overcast
12:55 AM 33.8 °F 24.3 °F 30.2 °F 87% 30.02 in 10.0 mi SW 13.8 mph - N/A   Overcast
1:15 AM 33.8 °F 24.3 °F 30.2 °F 87% 30.02 in 10.0 mi SW 13.8 mph - N/A   Overcast
1:35 AM 33.8 °F 24.3 °F 28.4 °F 81% 30.02 in 10.0 mi SW 13.8 mph 18.4 mph N/A   Overcast
1:55 AM 35.6 °F 27.1 °F 28.4 °F 75% 30.02 in 10.0 mi SW 12.7 mph 19.6 mph N/A   Overcast
2:15 AM 35.6 °F 26.6 °F 30.2 °F 81% 30.02 in 10.0 mi SW 13.8 mph - N/A   Overcast
2:35 AM 35.6 °F 26.2 °F 30.2 °F 81% 30.01 in 10.0 mi SW 15.0 mph - N/A   Overcast
2:55 AM 35.6 °F 26.2 °F 30.2 °F 81% 30.01 in 10.0 mi SW 15.0 mph - N/A   Overcast
3:15 AM 35.6 °F 25.9 °F 28.4 °F 75% 30.00 in 10.0 mi SW 16.1 mph - N/A   Overcast
3:35 AM 35.6 °F 26.2 °F 30.2 °F 81% 29.99 in 10.0 mi SW 15.0 mph - N/A   Overcast
3:55 AM 35.6 °F 26.2 °F 30.2 °F 81% 29.99 in 10.0 mi SW 15.0 mph 19.6 mph N/A   Overcast
4:15 AM 35.6 °F 26.2 °F 30.2 °F 81% 29.98 in 10.0 mi SW 15.0 mph 20.7 mph N/A   Overcast
4:35 AM 35.6 °F 26.6 °F 30.2 °F 81% 29.98 in 10.0 mi SW 13.8 mph - N/A   Overcast
4:55 AM 35.6 °F 25.5 °F 30.2 °F 81% 29.97 in 10.0 mi WSW 17.3 mph - N/A   Overcast
5:15 AM 35.6 °F 26.6 °F 28.4 °F 75% 29.97 in 10.0 mi WSW 13.8 mph - N/A   Overcast
5:35 AM 35.6 °F 26.6 °F 28.4 °F 75% 29.97 in 10.0 mi SW 13.8 mph - N/A   Overcast
5:55 AM 35.6 °F 27.1 °F 30.2 °F 81% 29.97 in 10.0 mi WSW 12.7 mph - N/A   Overcast
6:15 AM 33.8 °F 23.9 °F 30.2 °F 87% 29.98 in 10.0 mi WSW 15.0 mph - N/A   Overcast
6:35 AM 33.8 °F 24.8 °F 30.2 °F 87% 29.98 in 10.0 mi SW 12.7 mph - N/A   Scattered Clouds
6:55 AM 33.8 °F 24.3 °F 28.4 °F 81% 29.98 in 10.0 mi WSW 13.8 mph - N/A   Mostly Cloudy
7:15 AM 33.8 °F 24.3 °F 28.4 °F 81% 29.98 in 9.0 mi WSW 13.8 mph - N/A   Overcast
7:35 AM 35.6 °F 26.6 °F 30.2 °F 81% 29.98 in 9.0 mi WSW 13.8 mph - N/A   Overcast
7:55 AM 35.6 °F 26.2 °F 30.2 °F 81% 29.99 in 10.0 mi WSW 15.0 mph - N/A   Overcast
8:35 AM 35.6 °F 26.6 °F 32.0 °F 87% 29.99 in 10.0 mi West 13.8 mph - N/A   Overcast
8:55 AM 33.8 °F 21.0 °F 30.2 °F 87% 30.00 in 8.0 mi WNW 25.3 mph 29.9 mph N/A   Overcast
9:15 AM 30.2 °F 17.1 °F 28.4 °F 93% 30.02 in 5.0 mi WNW 21.9 mph 27.6 mph N/A   Overcast
9:35 AM 30.2 °F 17.4 °F 28.4 °F 93% 30.03 in 4.0 mi WNW 20.7 mph - N/A   Overcast
9:55 AM 30.2 °F 16.8 °F 26.6 °F 86% 30.04 in 10.0 mi West 23.0 mph 29.9 mph N/A   Overcast
10:15 AM 28.4 °F 15.8 °F 23.0 °F 80% 30.05 in 10.0 mi West 18.4 mph 24.2 mph N/A   Overcast
10:35 AM 28.4 °F 14.4 °F 23.0 °F 80% 30.05 in 10.0 mi West 23.0 mph 31.1 mph N/A   Overcast
10:55 AM 28.4 °F 13.8 °F 23.0 °F 80% 30.05 in 9.0 mi West 25.3 mph 29.9 mph N/A   Overcast
11:15 AM 26.6 °F 12.7 °F 21.2 °F 80% 30.05 in 7.0 mi WNW 20.7 mph - N/A   Overcast
11:35 AM 26.6 °F 13.1 °F 21.2 °F 80% 30.05 in 7.0 mi WNW 19.6 mph - N/A   Overcast
11:55 AM 26.6 °F 12.4 °F 21.2 °F 80% 30.05 in 7.0 mi WNW 21.9 mph 31.1 mph N/A   Overcast
12:15 PM 24.8 °F 9.6 °F 21.2 °F 86% 30.06 in 7.0 mi WNW 23.0 mph 28.8 mph N/A   Overcast
12:35 PM 24.8 °F 11.5 °F 21.2 °F 86% 30.07 in 5.0 mi WNW 17.3 mph 25.3 mph N/A   Overcast
12:55 PM 24.8 °F 10.3 °F 19.4 °F 80% 30.08 in 7.0 mi WNW 20.7 mph 28.8 mph N/A   Overcast
1:15 PM 24.8 °F 11.5 °F 19.4 °F 80% 30.08 in 7.0 mi WNW 17.3 mph 24.2 mph N/A   Overcast
1:35 PM 24.8 °F 11.5 °F 21.2 °F 86% 30.10 in 7.0 mi WNW 17.3 mph - N/A   Overcast
1:55 PM 24.8 °F 11.1 °F 21.2 °F 86% 30.11 in 7.0 mi WNW 18.4 mph 21.9 mph N/A   Overcast
2:15 PM 24.8 °F 11.1 °F 21.2 °F 86% 30.13 in 7.0 mi WNW 18.4 mph - N/A   Overcast
2:35 PM 24.8 °F 11.9 °F 21.2 °F 86% 30.14 in 7.0 mi WNW 16.1 mph - N/A   Overcast
2:55 PM 24.8 °F 13.4 °F 21.2 °F 86% 30.15 in 7.0 mi WNW 12.7 mph - N/A   Overcast
3:15 PM 26.6 °F 14.3 °F 21.2 °F 80% 30.17 in 7.0 mi WNW 16.1 mph - N/A   Overcast
3:35 PM 26.6 °F 15.2 °F 23.0 °F 86% 30.18 in 7.0 mi West 13.8 mph - N/A   Overcast
3:55 PM 26.6 °F 15.7 °F 21.2 °F 80% 30.18 in 7.0 mi West 12.7 mph - N/A   Overcast
4:15 PM 26.6 °F 15.7 °F 21.2 °F 80% 30.19 in 7.0 mi West 12.7 mph - N/A   Overcast
4:35 PM 26.6 °F 15.7 °F 21.2 °F 80% 30.20 in 7.0 mi West 12.7 mph - N/A   Overcast
4:55 PM 26.6 °F 15.7 °F 21.2 °F 80% 30.21 in 7.0 mi West 12.7 mph - N/A   Overcast
5:15 PM 26.6 °F 14.7 °F 21.2 °F 80% 30.23 in 9.0 mi West 15.0 mph - N/A   Overcast
5:35 PM 26.6 °F 15.2 °F 21.2 °F 80% 30.24 in 10.0 mi West 13.8 mph - N/A   Overcast
6:15 PM 26.6 °F 15.7 °F 23.0 °F 86% 30.25 in 10.0 mi West 12.7 mph - N/A   Overcast
6:35 PM 26.6 °F 14.7 °F 23.0 °F 86% 30.26 in 10.0 mi West 15.0 mph - N/A   Mostly Cloudy
6:55 PM 26.6 °F 15.7 °F 21.2 °F 80% 30.27 in 10.0 mi West 12.7 mph - N/A   Scattered Clouds
7:15 PM 28.4 °F 16.2 °F 24.8 °F 86% 30.27 in 10.0 mi West 17.3 mph - N/A   Mostly Cloudy
7:35 PM 28.4 °F 15.8 °F 24.8 °F 86% 30.29 in 10.0 mi West 18.4 mph - N/A   Overcast
7:55 PM 28.4 °F 16.6 °F 24.8 °F 86% 30.29 in 10.0 mi West 16.1 mph - N/A   Overcast
8:15 PM 28.4 °F 17.0 °F 23.0 °F 80% 30.30 in 10.0 mi West 15.0 mph - N/A   Overcast
8:35 PM 28.4 °F 17.0 °F 24.8 °F 86% 30.30 in 10.0 mi West 15.0 mph - N/A   Overcast
8:55 PM 28.4 °F 17.5 °F 24.8 °F 86% 30.30 in 10.0 mi West 13.8 mph - N/A   Overcast
9:55 PM 28.4 °F 17.0 °F 24.8 °F 86% 30.32 in 10.0 mi West 15.0 mph - N/A   Overcast
10:15 PM 28.4 °F 18.5 °F 24.8 °F 86% 30.33 in 10.0 mi West 11.5 mph - N/A   Overcast
10:35 PM 28.4 °F 19.1 °F 24.8 °F 86% 30.33 in 10.0 mi West 10.4 mph - N/A   Overcast
10:55 PM 28.4 °F 19.1 °F 24.8 °F 86% 30.33 in 10.0 mi WSW 10.4 mph - N/A   Overcast
11:35 PM 26.6 °F 17.5 °F 21.2 °F 80% 30.34 in 10.0 mi West 9.2 mph - N/A   Overcast
11:55 PM 26.6 °F 20.0 °F 21.2 °F 80% 30.33 in 9.0 mi West 5.8 mph - N/A   Overcast